Powrót do katalogu

BREEZE-M R/B

AktywnyHEO
NORAD 39164·ROCKET BODY·🇷🇺 Russia

Wystrzelony May 14, 2013 z Baikonur Cosmodrome

Loading…

Następne Przeloty (najbliższe 24 godziny)

TLE

ŚwieżeSource: Space-Track

Epoka: Sep 11, 2026, 16:59 UTC

1 39164U 13022B   26254.70811744 -.00000291  00000-0  00000-0 0  9995
2 39164  17.3106 190.1493 5406434 121.6988 302.1384  2.02200203 98459

Śledź BREEZE-M R/B w czasie rzeczywistym z AllMySat

Download on the App Store